Flag Weather past 2 weeks in Tunis, Tunisia

Now
64 °F

Passing clouds.


Feels Like: 64 °F
Forecast: 61 / 77 °F
Wind: 3 mph from South

Location: Tunis-Carthage

Current Time: Nov 23, 2014 at 11:52:53 PM

Latest Report: Nov 23, 2014 at 11:00 PM


Visibility: 5 mi

Pressure: 30.21 "Hg

Humidity: 83%

Dew point: 59 °F

Location of TunisLocation

Historic Weather in Tunis — Graph

°F

Tunis temperature yesterday

Maximum temperature yesterday: 75 °F (at 2:00 PM)
Minimum temperature yesterday: 54 °F (at 4:00 AM)
Average temperature yesterday: 64 °F

Past Weeks' High & Low Weather Summary

 TemperatureHumidityPressure
High79 °F (Nov 14, 2:30 PM)100% (Nov 11, 7:30 AM)30.24 "Hg (Nov 11, 7:30 AM)
Low52 °F (Nov 21, 7:30 AM)39% (Nov 14, 2:30 PM)29.71 "Hg (Nov 11, 1:30 PM)
Average65 °F75%29.99 "Hg
* Reported Nov 8 10:00 PM — Nov 23 10:30 PM, Tunis, Weather by CustomWeather, © 2014

Note: Actual official high and low records may vary slightly from our data, if they occured in-between our weather recording intervals... More about our weather records

Advertising

Tunis weather history for previous 24 hours

 ConditionsComfort  
Time TempWeatherWind HumidityBarometerVisibility
10:30 PM
Nov 23
63 °FPassing clouds.2 mph83%30.18 "Hg5 mi
10:00 PM64 °FPassing clouds.3 mph78%30.18 "Hg5 mi
9:30 PM66 °FPassing clouds.5 mph73%30.18 "Hg5 mi
9:00 PM68 °FPassing clouds.5 mph69%30.18 "Hg5 mi
8:30 PM68 °FPassing clouds.5 mph78%30.18 "Hg5 mi
8:00 PM66 °FPassing clouds.5 mph83%30.18 "Hg5 mi
7:30 PM68 °FPassing clouds.5 mph78%30.18 "Hg5 mi
7:00 PM68 °FPassing clouds.6 mph83%30.18 "Hg5 mi
6:30 PM68 °FPassing clouds.6 mph83%30.18 "HgN/A
6:00 PM68 °FPassing clouds.6 mph83%30.18 "HgN/A
5:30 PM70 °FPassing clouds.6 mph78%30.18 "HgN/A
5:00 PM70 °FPassing clouds.6 mph78%30.15 "HgN/A
4:30 PM72 °FPassing clouds.9 mph73%30.15 "HgN/A
4:00 PM72 °FPassing clouds.10 mph73%30.15 "HgN/A
3:30 PM73 °FPassing clouds.12 mph69%30.15 "HgN/A
3:00 PM73 °FPassing clouds.12 mph69%30.15 "HgN/A
2:30 PM75 °FPassing clouds.9 mph65%30.18 "HgN/A
2:00 PM75 °FPassing clouds.5 mph61%30.18 "Hg5 mi
1:30 PM75 °FPassing clouds.3 mph61%30.18 "Hg5 mi
1:00 PM75 °FPassing clouds.3 mph61%30.18 "Hg5 mi
12:30 PM72 °FPassing clouds.5 mph69%30.21 "Hg5 mi
12:00 PM72 °FPassing clouds.3 mph69%30.21 "Hg5 mi
11:30 AM70 °FPassing clouds.5 mph73%30.21 "Hg5 mi
11:00 AM68 °FPassing clouds.3 mph78%30.24 "Hg5 mi
10:30 AM66 °FPassing clouds.5 mph83%30.24 "Hg5 mi
10:00 AM66 °FPassing clouds.5 mph83%30.24 "Hg5 mi
9:30 AM64 °FPassing clouds.3 mph88%30.24 "Hg5 mi
9:00 AM63 °FFog.3 mph94%30.21 "Hg4 mi
8:30 AM61 °FFog.3 mph94%30.21 "Hg3 mi
8:00 AM55 °FFog.No wind100%30.21 "Hg2 mi
7:30 AM57 °FFog.No wind100%30.18 "Hg2 mi
7:00 AM57 °FFog.No wind100%30.18 "Hg2 mi
6:30 AM55 °FFog.No wind100%30.18 "Hg1 mi
6:00 AM55 °FFog.2 mph100%30.18 "Hg2 mi
5:51 AM55 °FFog.3 mph100%30.18 "Hg2 mi
5:30 AM57 °FPassing clouds.No wind94%30.18 "Hg4 mi
5:00 AM57 °FPassing clouds.No wind100%30.18 "Hg4 mi
4:30 AM59 °FPassing clouds.No wind94%30.18 "Hg4 mi
4:00 AM59 °FPassing clouds.No wind94%30.18 "Hg4 mi
3:30 AM59 °FPassing clouds.No wind100%30.18 "Hg5 mi
3:00 AM59 °FPassing clouds.No wind100%30.18 "Hg5 mi
2:30 AM57 °FPassing clouds.No wind94%30.21 "Hg5 mi
2:00 AM59 °FPassing clouds.No wind100%30.21 "Hg5 mi
1:30 AM61 °FPassing clouds.No wind94%30.21 "Hg5 mi
1:00 AM61 °FPassing clouds.No wind94%30.21 "Hg5 mi
12:30 AM61 °FClear.No wind94%30.21 "Hg10 mi
12:00 AM64 °FClear.6 mph94%30.21 "Hg10 mi
11:30 PM
Nov 22
59 °FClear.5 mph94%30.21 "Hg10 mi
11:00 PM61 °FPassing clouds.3 mph94%30.21 "HgN/A
Weather by CustomWeather, © 2014

See weather overviewHow to use our weather pages